Volver al catálogo

STARLINK-32621

ActivoComunicacionesVLEO
NORAD 62303·PAYLOAD·🇺🇸 United States

Lanzado Dec 13, 2024 desde Vandenberg Space Force Base

Loading…

Próximos Pases (próximas 24 horas)

TLE

ActualizadoSource: CelesTrak SupGP

Época: Sep 15, 2026, 03:26 UTC

1 62303C 24239C   26258.14354167  .00053902  00000+0  15925-2 0  2588
2 62303  53.1603  18.4792 0001169  94.2215  52.0433 15.34364404    17

Sigue STARLINK-32621 en tiempo real con AllMySat

Download on the App Store